TimeCDT,TemperatureF,Dew PointF,Humidity,Sea Level PressureIn,VisibilityMPH,Wind Direction,Wind SpeedMPH,Gust SpeedMPH,PrecipitationIn,Events,Conditions,WindDirDegrees,DateUTC
12:15 AM,71.4,59.9,67,30.13,10.0,SE,5.8,-,N/A,,Clear,130,2013-05-28 05:15:00
12:35 AM,70.7,59.9,69,30.12,10.0,SE,4.6,-,N/A,,Clear,130,2013-05-28 05:35:00
12:55 AM,70.2,59.5,69,30.12,10.0,SE,4.6,-,N/A,,Clear,140,2013-05-28 05:55:00
1:15 AM,70.0,59.5,69,30.11,10.0,SE,5.8,-,N/A,,Clear,130,2013-05-28 06:15:00
1:35 AM,69.8,59.4,69,30.11,10.0,ESE,5.8,-,N/A,,Clear,120,2013-05-28 06:35:00
1:55 AM,69.4,59.4,70,30.11,10.0,ESE,5.8,-,N/A,,Clear,120,2013-05-28 06:55:00
2:15 AM,69.1,59.2,71,30.11,10.0,SE,4.6,-,N/A,,Clear,130,2013-05-28 07:15:00
2:35 AM,67.6,59.2,74,30.11,10.0,South,3.5,-,N/A,,Clear,190,2013-05-28 07:35:00
2:55 AM,66.4,58.8,77,30.11,10.0,South,4.6,-,N/A,,Clear,190,2013-05-28 07:55:00
3:15 AM,66.0,58.3,76,30.12,10.0,SSW,3.5,-,N/A,,Clear,200,2013-05-28 08:15:00
3:35 AM,65.5,58.1,77,30.12,10.0,Calm,Calm,-,N/A,,Clear,0,2013-05-28 08:35:00
3:55 AM,64.8,57.9,78,30.13,10.0,Calm,Calm,-,N/A,,Clear,0,2013-05-28 08:55:00
4:15 AM,64.2,57.7,79,30.13,10.0,South,4.6,-,N/A,,Clear,190,2013-05-28 09:15:00
4:35 AM,64.9,57.7,77,30.14,10.0,SE,5.8,-,N/A,,Clear,140,2013-05-28 09:35:00
4:55 AM,65.7,58.1,77,30.14,10.0,Calm,Calm,-,N/A,,Clear,0,2013-05-28 09:55:00
5:15 AM,65.1,58.1,78,30.14,10.0,SSE,6.9,-,N/A,,Clear,160,2013-05-28 10:15:00
5:35 AM,65.3,58.1,77,30.15,10.0,South,5.8,-,N/A,,Clear,170,2013-05-28 10:35:00
5:55 AM,63.9,58.1,81,30.15,10.0,South,5.8,-,N/A,,Clear,180,2013-05-28 10:55:00
6:15 AM,64.2,57.9,80,30.15,10.0,South,4.6,-,N/A,,Clear,180,2013-05-28 11:15:00
6:35 AM,65.1,58.1,78,30.16,10.0,SSW,3.5,-,N/A,,Clear,200,2013-05-28 11:35:00
6:55 AM,65.5,58.6,79,30.16,10.0,South,4.6,-,N/A,,Clear,170,2013-05-28 11:55:00
7:15 AM,66.7,59.0,76,30.17,10.0,South,5.8,-,N/A,,Clear,180,2013-05-28 12:15:00
7:35 AM,67.8,59.2,74,30.17,10.0,South,5.8,-,N/A,,Clear,170,2013-05-28 12:35:00
7:55 AM,69.3,59.7,72,30.17,10.0,South,4.6,-,N/A,,Clear,170,2013-05-28 12:55:00
8:15 AM,71.1,59.5,67,30.17,10.0,SSW,9.2,-,N/A,,Clear,200,2013-05-28 13:15:00
8:35 AM,72.3,58.8,62,30.18,10.0,South,6.9,-,N/A,,Clear,190,2013-05-28 13:35:00
8:55 AM,73.4,57.0,56,30.18,10.0,SSW,8.1,-,N/A,,Clear,210,2013-05-28 13:55:00
9:15 AM,74.5,56.1,53,30.18,10.0,SSW,9.2,-,N/A,,Clear,200,2013-05-28 14:15:00
9:35 AM,75.9,55.8,49,30.18,10.0,South,9.2,-,N/A,,Clear,190,2013-05-28 14:35:00
9:55 AM,76.6,55.2,47,30.18,10.0,South,11.5,16.1,N/A,,Clear,190,2013-05-28 14:55:00
10:15 AM,77.2,55.2,47,30.18,10.0,South,15.0,20.7,N/A,,Clear,190,2013-05-28 15:15:00
10:35 AM,78.3,56.1,46,30.18,10.0,South,18.4,21.9,N/A,,Clear,180,2013-05-28 15:35:00
10:55 AM,78.6,56.3,46,30.18,10.0,SSW,15.0,19.6,N/A,,Clear,200,2013-05-28 15:55:00
11:15 AM,79.0,57.4,47,30.17,10.0,South,13.8,19.6,N/A,,Clear,190,2013-05-28 16:15:00
11:35 AM,79.2,59.2,50,30.17,10.0,SSW,15.0,18.4,N/A,,Clear,200,2013-05-28 16:35:00
11:55 AM,79.9,59.9,50,30.17,10.0,South,11.5,-,N/A,,Clear,190,2013-05-28 16:55:00
12:15 PM,80.4,60.8,51,30.16,10.0,South,9.2,17.3,N/A,,Clear,180,2013-05-28 17:15:00
12:35 PM,80.8,61.2,51,30.16,10.0,SSE,12.7,21.9,N/A,,Clear,160,2013-05-28 17:35:00
12:55 PM,81.7,60.3,48,30.15,10.0,South,11.5,17.3,N/A,,Clear,180,2013-05-28 17:55:00
1:15 PM,82.0,60.4,48,30.15,10.0,South,10.4,18.4,N/A,,Clear,180,2013-05-28 18:15:00
1:35 PM,82.0,60.4,48,30.15,10.0,South,11.5,-,N/A,,Scattered Clouds,180,2013-05-28 18:35:00
1:55 PM,82.2,61.5,49,30.14,10.0,South,10.4,-,N/A,,Scattered Clouds,180,2013-05-28 18:55:00
2:15 PM,81.9,61.3,50,30.14,10.0,SSE,8.1,-,N/A,,Scattered Clouds,160,2013-05-28 19:15:00
2:35 PM,82.6,61.0,48,30.14,10.0,SSE,10.4,16.1,N/A,,Scattered Clouds,150,2013-05-28 19:35:00
2:55 PM,83.1,61.5,48,30.13,10.0,South,12.7,-,N/A,,Scattered Clouds,190,2013-05-28 19:55:00
3:15 PM,83.5,61.5,47,30.13,10.0,SSW,11.5,-,N/A,,Scattered Clouds,200,2013-05-28 20:15:00
3:35 PM,83.1,61.5,48,30.13,10.0,South,11.5,17.3,N/A,,Scattered Clouds,170,2013-05-28 20:35:00
3:55 PM,82.6,61.9,49,30.12,10.0,South,6.9,-,N/A,,Scattered Clouds,180,2013-05-28 20:55:00
4:15 PM,83.1,62.1,49,30.13,10.0,SSE,10.4,-,N/A,,Scattered Clouds,160,2013-05-28 21:15:00
4:35 PM,81.7,61.3,50,30.12,10.0,SSW,4.6,-,N/A,,Scattered Clouds,200,2013-05-28 21:35:00
4:55 PM,83.5,62.4,49,30.12,10.0,SE,9.2,-,N/A,,Scattered Clouds,140,2013-05-28 21:55:00
5:15 PM,81.1,61.9,52,30.11,10.0,SSE,4.6,-,N/A,,Scattered Clouds,160,2013-05-28 22:15:00
5:35 PM,81.3,61.9,52,30.11,10.0,SSW,4.6,-,N/A,,Clear,200,2013-05-28 22:35:00
5:55 PM,82.2,61.9,50,30.10,10.0,SSE,6.9,-,N/A,,Clear,160,2013-05-28 22:55:00
6:15 PM,81.1,61.9,52,30.09,10.0,South,5.8,-,N/A,,Clear,180,2013-05-28 23:15:00
6:35 PM,80.4,62.6,54,30.10,10.0,South,3.5,-,N/A,,Scattered Clouds,170,2013-05-28 23:35:00
6:55 PM,80.4,63.0,55,30.10,10.0,SSE,3.5,-,N/A,,Scattered Clouds,160,2013-05-28 23:55:00
7:15 PM,80.1,62.8,55,30.10,10.0,SE,3.5,-,N/A,,Mostly Cloudy,140,2013-05-29 00:15:00
7:35 PM,79.3,63.3,58,30.10,10.0,Calm,Calm,-,N/A,,Mostly Cloudy,0,2013-05-29 00:35:00
7:55 PM,77.9,63.7,61,30.11,10.0,Calm,Calm,-,N/A,,Scattered Clouds,0,2013-05-29 00:55:00
8:15 PM,76.3,63.5,64,30.11,10.0,Calm,Calm,-,N/A,,Scattered Clouds,0,2013-05-29 01:15:00
8:35 PM,75.4,63.3,66,30.11,10.0,SE,3.5,-,N/A,,Scattered Clouds,130,2013-05-29 01:35:00
8:55 PM,75.2,63.3,66,30.11,10.0,SE,4.6,-,N/A,,Scattered Clouds,130,2013-05-29 01:55:00
9:15 PM,74.8,63.0,66,30.11,10.0,SE,3.5,-,N/A,,Clear,140,2013-05-29 02:15:00
9:35 PM,74.5,62.6,66,30.11,10.0,SE,3.5,-,N/A,,Clear,140,2013-05-29 02:35:00
9:55 PM,73.4,62.6,69,30.12,10.0,SE,4.6,-,N/A,,Clear,130,2013-05-29 02:55:00
10:15 PM,73.2,62.4,69,30.12,10.0,SE,3.5,-,N/A,,Clear,140,2013-05-29 03:15:00
10:35 PM,72.7,62.4,70,30.12,10.0,SSE,4.6,-,N/A,,Scattered Clouds,150,2013-05-29 03:35:00
10:55 PM,72.5,62.4,71,30.12,10.0,SSE,4.6,-,N/A,,Scattered Clouds,150,2013-05-29 03:55:00
11:15 PM,72.5,62.4,71,30.12,10.0,SSE,4.6,-,N/A,,Scattered Clouds,150,2013-05-29 04:15:00
11:35 PM,72.0,62.2,71,30.11,10.0,SE,5.8,-,N/A,,Scattered Clouds,140,2013-05-29 04:35:00
11:55 PM,71.4,62.1,72,30.10,10.0,SSE,5.8,-,N/A,,Clear,150,2013-05-29 04:55:00